ECMWFFLT1_925_temp_021.txt.gz
Temp
17 16 16 16 16 16 16 16 16 16 16 16 16 16 16 16 16 16 16 16 16 15 14 14 14 15 15 15 14 14 14 14 14 15 14 14 14 14 14 15 15 15 15 16 16 17 17 16 15 14 14 13 14 14 13 13 14 14 14 14 14 14 14
17 17 16 16 16 16 16 16 16 16 16 16 16 16 16 16 16 16 16 16 16 15 15 15 15 14 15 14 14 14 14 14 14 14 14 15 15 14 14 14 15 15 15 15 16 17 18 17 16 15 15 14 14 13 13 13 13 14 14 14 14 14 14
17 17 16 16 16 16 16 16 16 16 16 16 16 16 16 16 16 16 16 16 15 16 16 16 15 15 15 14 14 14 14 14 14 14 14 14 14 14 14 15 15 15 16 16 16 17 17 17 17 16 16 15 14 13 13 13 13 13 13 14 14 13 14
17 17 16 16 16 16 16 16 16 16 16 16 16 16 16 16 16 16 16 16 16 16 16 16 16 15 15 15 15 14 14 14 14 14 14 14 14 14 14 15 16 16 16 17 17 17 17 18 17 16 16 16 15 14 13 13 13 14 13 13 13 13 13
18 17 17 16 16 15 15 15 16 16 16 16 16 16 16 16 16 16 16 16 16 15 15 16 16 15 15 15 15 15 15 15 15 15 14 14 14 14 14 15 15 15 16 16 16 17 17 17 17 17 16 16 16 15 13 13 13 13 13 13 13 13 13
18 17 17 16 16 16 15 15 15 15 15 15 15 15 15 15 15 15 15 15 15 15 15 15 15 15 15 15 15 15 15 15 15 15 15 15 14 14 15 15 15 15 15 15 15 16 16 16 17 16 16 16 16 15 14 14 14 14 13 13 13 12 12
17 17 17 17 16 15 15 15 15 15 15 15 15 15 15 15 15 15 15 15 15 15 15 15 15 15 15 15 15 15 15 15 15 15 15 15 15 15 15 15 15 15 15 15 15 15 15 16 16 16 15 15 15 16 15 15 15 14 14 13 12 12 12
17 17 17 17 17 16 15 15 15 15 15 15 15 15 15 15 15 14 14 14 14 14 14 14 14 14 15 15 15 15 15 15 15 15 15 15 15 15 15 15 15 14 14 14 14 15 15 15 15 15 16 15 15 15 16 15 15 14 13 13 12 11 11
17 17 17 17 17 16 15 15 15 15 15 15 15 15 15 15 15 14 14 14 14 14 14 14 14 14 14 14 14 14 14 14 14 15 15 15 15 15 15 15 14 14 14 14 14 14 15 15 15 15 16 16 16 15 15 15 15 14 13 13 13 11 11
17 18 18 17 17 16 16 15 15 15 15 15 15 15 15 15 15 15 14 14 14 14 14 14 14 14 14 14 14 14 14 14 14 15 15 15 15 15 15 15 14 14 14 14 14 14 15 14 14 14 15 16 17 16 16 15 15 14 13 12 13 12 11
17 18 18 17 17 17 16 15 15 15 15 15 15 15 15 15 15 15 15 14 14 14 14 14 14 14 14 14 14 14 14 14 14 14 14 14 15 14 15 15 14 14 14 14 14 14 14 14 14 14 15 15 16 17 17 16 14 14 13 12 12 11 11
17 17 17 17 17 17 16 16 15 15 15 16 16 15 15 15 15 15 15 14 14 14 14 14 14 14 14 14 14 14 14 14 14 14 14 14 14 14 14 14 14 14 14 14 14 14 14 14 14 14 14 14 15 15 16 16 15 13 12 12 11 10 10
17 17 17 17 17 17 17 16 15 15 15 15 16 15 15 15 15 15 15 15 14 14 14 14 14 14 14 14 14 14 13 14 14 14 13 13 14 13 13 13 13 14 14 14 14 14 14 14 14 14 14 14 14 14 14 16 15 13 11 11 11 10 10
16 16 17 17 17 16 16 16 15 15 16 15 15 15 15 15 15 15 15 15 14 14 14 14 14 14 14 14 14 14 13 13 14 13 13 13 14 14 14 14 14 14 14 14 13 14 13 13 13 13 13 13 13 13 14 14 15 13 11 10 10 10 10
16 16 17 17 16 16 16 16 15 15 15 16 15 15 15 15 15 15 15 14 14 14 14 14 14 14 14 14 14 14 14 14 14 14 14 13 14 14 14 14 14 14 14 14 13 13 13 13 13 13 13 13 13 13 13 14 14 14 12 11 10 10 10
15 15 16 16 16 15 15 15 15 15 15 15 15 15 15 15 15 15 14 14 14 14 14 14 14 14 14 14 14 14 14 14 14 14 14 14 14 14 14 14 14 14 14 13 13 13 13 13 13 13 12 12 13 12 12 13 13 13 13 11 10 10 10
15 15 16 16 15 15 14 15 16 15 15 15 15 15 15 15 15 15 15 14 14 14 14 14 14 14 14 14 14 14 13 13 13 13 14 14 14 14 13 13 13 13 13 13 13 13 13 13 13 13 12 12 12 12 12 12 12 13 13 12 11 10 10
16 16 15 15 15 14 15 15 15 15 15 15 15 15 15 15 15 15 15 15 14 14 14 14 14 14 14 14 14 14 14 13 13 13 13 13 13 14 14 13 13 13 13 13 13 13 13 13 13 12 12 12 12 12 12 12 12 12 12 12 11 10 9
15 15 15 15 15 14 15 15 15 15 14 14 15 15 15 15 15 15 15 15 14 14 14 14 13 14 14 14 14 14 14 14 14 13 13 13 13 13 13 13 13 13 13 13 13 13 13 13 13 13 13 12 12 12 12 12 11 11 12 12 11 10 9
14 14 15 15 15 14 15 15 15 15 14 14 14 15 15 15 15 15 14 14 14 14 14 14 14 14 14 14 14 14 13 14 14 14 14 13 13 13 13 13 13 13 13 12 13 13 13 13 13 13 13 12 12 12 11 11 11 11 11 11 11 11 10
13 14 14 15 15 14 14 15 15 15 14 14 15 15 15 15 15 15 15 15 14 14 15 14 14 14 14 14 14 14 14 14 14 14 14 14 14 13 13 13 13 13 13 13 13 13 13 13 13 13 12 12 12 11 11 11 11 11 11 11 11 11 10
13 13 14 15 15 14 15 15 15 15 15 15 15 15 16 15 15 15 15 15 15 15 15 14 14 14 14 14 14 14 14 14 14 14 14 14 14 14 13 13 13 13 13 13 13 12 13 13 13 13 13 12 12 12 11 11 11 11 12 12 12 11 11
13 13 14 14 15 15 15 15 14 14 14 14 15 15 15 15 15 15 15 15 15 14 14 14 14 14 14 14 14 14 14 13 14 14 14 14 14 14 13 13 13 13 13 13 13 12 12 13 12 13 13 12 12 12 11 11 11 11 12 12 11 11 11
13 14 14 14 14 14 14 14 13 13 13 13 13 14 14 14 14 14 14 15 15 14 14 14 13 13 13 13 13 13 13 13 13 14 13 13 13 13 13 13 13 13 13 13 12 12 12 12 12 12 12 12 12 11 11 11 11 11 11 11 10 10 10
13 14 14 14 14 14 13 13 13 13 13 13 13 13 13 13 14 14 14 15 15 15 14 14 14 14 14 13 13 13 13 13 13 13 13 13 13 13 12 12 13 13 12 12 12 11 11 11 11 11 11 11 11 11 11 11 10 10 10 10 10 10 10
13 13 13 13 12 12 12 12 12 12 13 13 12 12 12 13 13 13 14 14 14 15 15 14 14 14 13 13 13 13 13 13 13 13 13 13 13 12 12 12 12 12 12 12 12 11 11 11 11 11 11 11 10 10 10 10 10 10 9 9 9 9 9
13 13 12 12 12 12 12 12 12 12 12 12 12 11 11 12 12 13 13 13 14 14 14 14 14 13 13 13 13 13 13 13 13 13 13 12 12 12 12 12 12 12 12 12 12 11 11 11 10 10 10 10 10 10 10 10 9 9 9 9 8 8 8
13 12 12 12 12 12 12 12 12 13 12 12 11 11 11 12 12 12 13 13 13 13 13 13 13 13 13 13 13 13 13 13 13 13 12 12 12 12 12 12 12 12 12 11 11 11 11 10 10 10 10 10 10 9 9 9 9 8 8 8 7 7 7
13 13 12 12 12 12 13 13 13 13 12 11 11 11 12 12 12 12 12 12 12 13 13 13 12 13 13 13 13 13 13 13 12 12 12 12 12 12 12 12 12 11 11 11 11 11 11 10 10 10 10 10 9 9 9 8 8 8 8 7 7 6 6
14 13 13 13 13 13 13 13 13 13 12 11 11 11 11 12 12 12 12 12 12 12 12 12 12 13 13 13 13 13 13 12 12 12 11 11 11 11 11 11 11 11 11 11 10 10 10 10 10 10 10 9 9 8 8 7 7 7 7 6 6 6 5
13 14 14 13 13 13 13 14 14 14 13 13 12 12 12 12 12 12 12 12 12 12 12 12 13 13 13 13 13 13 12 12 11 11 11 11 11 11 11 11 11 11 10 10 10 10 10 10 10 10 9 9 8 7 7 6 6 6 5 5 5 5 5
13 13 14 14 14 14 14 14 14 14 14 13 13 13 13 13 13 13 13 13 12 12 12 12 12 12 12 12 12 12 12 12 11 11 11 11 10 10 10 10 10 10 10 10 10 10 9 9 9 9 8 8 7 6 6 6 5 4 4 4 4 4 4
12 12 13 13 14 14 14 13 14 14 13 13 13 13 13 13 13 13 13 13 13 13 12 12 12 12 12 12 12 12 11 11 11 10 10 10 9 9 9 9 9 9 10 9 9 9 9 9 9 9 8 7 7 6 5 5 4 4 4 3 3 3 3
12 12 12 13 13 13 13 13 13 14 13 13 13 13 13 13 13 13 13 13 13 13 12 12 12 12 12 12 11 11 11 11 11 10 10 9 9 8 8 8 8 8 9 9 9 9 8 8 8 8 7 7 6 6 5 4 4 4 3 3 3 3 3
12 12 12 12 12 13 13 13 13 13 13 13 13 13 13 13 13 13 13 13 12 12 12 12 11 11 11 11 11 10 10 10 11 10 10 9 8 8 8 8 8 7 8 8 8 8 8 8 7 7 6 6 5 5 4 3 3 3 3 3 3 3 3
12 12 12 12 12 12 12 13 13 13 13 13 13 13 13 13 13 12 12 11 11 11 11 11 11 11 11 11 10 10 10 10 10 10 10 9 8 8 8 7 7 7 7 7 7 7 7 6 6 5 5 4 4 4 3 3 2 2 2 2 3 3 3
11 11 12 12 11 11 12 12 12 12 13 13 13 13 12 12 12 12 11 11 10 10 10 10 10 10 10 10 10 10 10 10 9 9 9 9 8 8 7 7 6 6 6 6 6 6 6 5 5 5 4 4 4 3 3 2 2 2 2 2 2 3 2

ECMWFFLT1_925_temp_024.txt.gz
Temp
19 19 18 18 18 18 17 17 17 17 17 17 17 17 17 17 16 16 16 16 17 17 17 17 17 17 17 17 16 16 16 16 16 16 16 16 17 17 16 16 17 17 18 18 19 19 19 18 17 17 17 16 16 16 16 16 16 16 16 16 16 16 16
19 18 18 18 17 17 17 17 17 17 17 17 17 16 17 17 17 16 16 16 16 17 17 17 17 16 16 16 16 16 16 16 16 16 16 17 18 17 17 17 18 18 18 18 19 20 20 19 17 17 16 16 16 16 16 16 16 16 16 16 16 16 16
18 18 18 17 17 17 17 17 17 17 17 17 16 16 16 16 16 16 16 16 16 16 17 16 16 16 16 16 16 16 16 16 16 16 17 17 17 17 17 18 18 18 19 19 19 19 20 20 19 18 17 17 17 16 16 16 16 16 16 16 16 16 16
18 18 18 17 17 18 17 17 17 17 17 17 17 16 16 16 16 16 16 16 16 16 16 16 16 16 16 16 16 16 16 16 16 16 16 17 17 16 17 18 19 19 19 19 19 19 20 20 19 19 19 18 18 17 16 16 17 17 17 16 16 16 16
18 18 18 17 18 18 18 17 17 17 17 17 17 16 16 16 16 16 16 16 16 16 16 16 16 16 16 16 16 16 16 16 16 16 16 16 16 17 17 17 18 18 19 19 19 19 19 20 19 19 20 19 18 18 17 16 17 17 17 17 16 16 16
18 18 18 18 18 18 18 17 17 17 17 17 17 17 16 16 16 16 16 16 16 15 16 16 16 16 16 16 16 16 16 16 16 16 16 16 16 16 17 17 17 18 18 18 19 19 19 19 19 20 20 20 19 18 17 17 17 17 17 16 16 16 15
18 18 18 18 18 18 18 17 17 17 17 17 17 16 16 16 16 15 15 15 15 15 15 15 15 15 16 17 16 16 16 16 16 16 16 16 16 17 17 17 18 18 18 18 18 19 19 19 19 20 20 19 19 19 19 18 18 18 17 16 16 16 15
18 18 18 18 17 17 17 17 17 17 17 17 16 16 15 15 15 15 15 15 15 15 15 15 15 15 16 16 16 16 16 16 16 16 16 16 16 16 17 17 17 17 18 18 18 19 19 19 19 19 20 19 19 19 19 19 18 18 17 16 16 15 15
17 18 18 17 17 17 17 17 17 17 17 16 16 15 15 15 15 15 15 15 14 15 15 15 15 15 15 16 16 15 15 16 16 16 16 16 16 16 16 17 17 17 17 17 18 18 18 19 19 19 19 19 19 19 19 19 18 18 17 17 16 15 14
17 17 17 16 16 16 17 17 17 16 16 16 16 15 15 15 15 15 15 15 14 15 15 15 15 15 15 15 15 15 15 15 15 15 16 16 15 16 16 16 17 17 17 17 17 17 17 18 18 18 19 20 20 19 19 18 18 18 17 17 16 15 14
17 17 16 16 16 16 16 17 16 16 16 16 15 15 15 15 15 15 15 15 15 15 15 15 15 15 15 15 15 15 15 15 15 15 15 15 15 15 16 16 16 16 16 16 16 16 17 17 18 18 18 19 19 20 20 19 18 17 17 16 16 15 15
17 16 16 16 16 16 16 16 16 16 16 16 16 15 16 16 15 15 15 15 15 15 15 15 15 15 15 15 15 15 15 15 15 15 15 15 15 15 15 15 16 16 16 16 16 16 16 17 18 18 18 18 18 19 19 19 18 16 16 16 15 14 14
16 16 17 17 16 16 16 16 16 16 16 16 16 16 16 16 16 16 16 15 15 15 15 15 15 15 15 15 16 16 15 15 16 15 15 15 15 15 15 16 16 16 16 16 16 16 16 16 17 17 17 17 17 17 18 19 18 16 15 15 15 14 13
16 17 17 16 16 16 16 16 16 16 16 16 16 16 16 16 16 16 16 16 16 15 15 15 15 15 15 15 15 15 15 16 16 16 15 15 16 16 16 16 16 15 16 16 16 16 16 16 16 17 17 17 17 17 17 18 17 16 15 14 14 14 13
16 16 16 16 16 16 16 16 15 15 15 15 16 16 16 16 16 16 16 16 16 16 15 15 15 15 15 15 15 15 15 16 16 16 16 16 16 16 16 16 16 15 15 16 16 17 17 17 17 17 17 17 17 16 17 17 17 17 15 14 14 14 13
16 16 16 15 15 15 15 15 15 15 15 15 15 16 16 16 16 16 16 16 16 16 16 15 15 15 15 15 15 15 15 15 15 15 16 16 16 16 15 16 15 15 15 15 16 16 16 17 17 17 16 16 16 16 16 16 17 17 16 15 15 15 14
16 16 16 16 15 15 15 15 15 15 15 15 15 15 15 16 16 16 16 16 16 16 16 15 15 15 15 15 15 15 15 15 15 15 16 16 16 16 15 16 15 15 15 15 15 16 16 16 17 16 16 16 16 15 15 16 16 16 16 16 15 15 14
16 16 16 16 15 15 15 15 15 15 15 15 15 15 15 15 16 16 16 16 16 16 16 16 16 15 15 15 15 15 15 15 15 15 15 15 15 15 15 15 15 15 15 15 15 15 15 15 16 16 16 16 16 15 15 15 16 16 16 16 15 14 14
16 16 16 16 16 15 15 15 15 15 15 16 15 15 15 15 16 16 16 16 16 16 16 16 16 16 15 15 15 15 15 15 15 15 15 15 15 15 15 15 15 15 15 15 15 15 15 15 15 16 16 16 16 15 14 15 15 15 15 15 15 14 14
16 16 16 16 16 15 16 16 16 16 16 16 16 16 16 16 16 16 16 16 16 16 16 16 16 16 16 15 15 15 15 15 15 15 15 15 15 15 15 15 15 14 14 14 14 14 14 14 14 15 15 15 15 15 15 15 15 15 15 15 15 15 14
16 16 16 16 16 16 16 16 16 16 16 16 16 16 16 16 16 16 16 16 16 16 15 15 15 15 15 15 15 15 15 15 15 15 15 15 15 15 15 14 14 14 14 14 13 13 13 13 14 15 14 14 14 14 15 15 15 15 15 15 15 15 15
15 15 15 16 16 16 16 16 16 16 16 16 16 16 16 16 16 16 16 15 15 15 14 15 15 15 15 15 15 15 15 15 15 15 15 15 15 15 15 15 14 14 14 14 13 13 13 13 14 14 14 13 13 14 14 15 15 15 16 16 16 15 15
15 15 15 16 16 16 16 16 16 16 16 16 16 16 16 16 16 16 15 15 15 15 14 14 15 15 14 14 14 14 14 14 14 15 15 15 15 15 14 14 14 14 14 14 13 13 13 13 13 13 13 13 13 13 14 14 15 15 15 15 15 15 15
15 15 15 15 15 15 16 15 15 15 16 16 16 16 16 16 15 15 15 15 15 15 15 14 15 15 14 14 14 14 14 14 14 14 14 14 14 14 14 14 14 14 13 13 13 13 13 12 12 12 12 12 12 13 13 14 14 14 14 15 15 14 14
15 15 15 15 15 15 15 15 15 15 15 15 15 15 15 15 15 15 15 14 14 14 14 15 15 14 14 14 14 14 14 14 14 14 14 14 14 14 13 14 14 14 13 13 13 13 13 13 12 12 12 12 12 12 12 13 13 13 13 13 14 13 13
15 15 15 15 15 15 15 15 14 14 14 14 14 14 14 14 14 14 14 14 14 14 14 14 14 14 14 15 15 14 14 14 14 13 13 13 13 13 13 14 14 14 13 12 12 12 12 12 12 12 11 11 11 11 11 12 12 12 12 12 12 13 12
15 15 15 15 15 14 14 14 14 14 14 14 14 14 14 14 14 14 14 14 14 13 13 14 14 14 14 15 15 14 13 13 13 13 13 13 13 13 13 14 14 14 13 12 12 12 11 12 12 11 10 10 10 11 11 11 11 11 11 11 11 11 11
16 15 15 15 15 15 14 14 14 14 14 14 14 14 14 14 14 14 14 14 14 13 13 13 13 13 14 14 14 13 13 13 13 13 13 13 13 13 13 13 13 13 13 12 12 11 11 11 11 10 10 10 10 10 10 10 10 10 10 10 10 10 9
15 15 15 15 15 15 15 15 14 14 14 14 14 14 14 14 14 14 14 13 14 13 13 12 13 13 13 13 13 13 13 13 13 12 12 12 12 12 12 12 13 13 12 12 12 11 10 10 10 10 11 10 10 9 10 10 9 9 9 9 9 8 8
15 15 15 15 15 15 15 15 15 14 14 14 14 14 13 14 14 14 13 13 13 13 12 12 13 12 12 13 13 13 13 13 12 12 12 12 12 12 12 12 12 12 11 12 12 11 10 10 11 11 11 10 10 9 9 9 9 9 9 9 8 8 7
15 15 15 15 15 15 15 15 15 15 14 14 14 14 13 13 13 13 13 13 13 13 12 12 12 12 12 12 13 13 13 13 12 12 12 12 11 11 12 12 12 11 11 12 11 11 10 11 11 11 11 10 10 10 9 8 8 8 8 7 7 7 6
14 14 14 15 14 14 15 15 15 15 14 15 14 14 14 13 13 13 12 12 12 12 12 12 12 12 12 13 13 14 14 14 13 13 12 12 11 11 11 11 11 11 11 11 11 10 10 11 11 11 11 11 11 10 9 8 7 7 7 7 7 6 6
13 14 14 14 14 14 14 15 15 14 14 15 15 14 14 14 13 13 12 12 12 12 12 12 12 12 13 13 13 14 14 14 13 13 13 12 11 11 10 10 10 10 11 11 10 10 10 10 10 10 10 11 11 10 8 7 7 7 7 7 7 6 6
13 13 13 13 13 13 14 14 14 14 14 15 15 14 14 14 13 12 12 12 12 12 12 12 12 13 13 13 13 13 14 14 13 13 13 12 12 11 10 9 9 10 10 10 10 10 9 9 10 10 10 10 10 9 8 7 7 7 6 7 7 7 7
12 12 12 13 13 13 13 14 14 14 14 15 14 14 14 14 13 13 12 12 12 12 12 12 12 12 12 12 12 13 13 13 13 13 13 12 12 11 10 9 9 9 9 9 9 9 9 9 9 9 8 8 8 7 7 7 7 7 7 7 7 7 7
11 11 12 12 13 13 13 13 13 13 14 14 14 14 14 14 14 13 13 12 12 12 12 12 12 12 12 12 12 12 12 12 12 12 13 12 12 11 9 9 9 8 8 8 8 8 8 8 8 8 7 7 7 7 6 6 6 7 7 7 7 7 7
11 11 12 12 12 13 13 13 13 13 14 14 14 14 14 14 14 14 13 13 12 11 11 11 12 12 12 12 11 11 11 11 11 12 12 12 11 10 9 9 9 8 7 8 8 8 7 7 7 7 6 6 6 6 6 6 7 7 7 7 7 7 7

ECMWFFLT1_925_temp_030.txt.gz
Temp
20 20 20 20 20 20 20 19 19 19 19 19 19 19 18 18 18 18 18 18 19 19 18 18 18 18 18 18 17 17 17 17 16 16 16 16 16 16 16 16 16 17 17 17 17 18 17 17 17 17 17 18 18 18 18 18 18 18 18 17 17 16 16
20 20 20 20 20 19 19 19 19 19 19 19 19 19 19 18 18 18 18 18 19 19 19 18 18 18 18 18 17 17 17 17 16 16 16 16 16 16 16 16 16 16 16 17 17 18 18 17 16 16 16 17 17 18 18 18 18 18 18 17 17 16 16
20 20 20 19 19 19 19 19 19 19 18 18 18 18 18 18 18 18 18 18 18 18 18 18 18 18 17 17 17 17 17 17 16 16 16 16 16 16 16 15 15 16 16 16 16 17 17 17 17 16 17 17 17 17 18 18 18 18 18 17 17 16 15
20 20 20 19 19 19 19 19 19 19 19 18 18 18 18 18 18 18 18 18 18 18 18 18 18 18 17 17 17 17 17 17 17 17 16 16 16 16 16 15 15 16 16 15 16 16 16 17 17 17 17 17 17 17 18 18 18 18 17 17 17 16 15
20 20 19 19 19 19 19 19 19 19 18 18 18 18 17 18 17 17 18 18 18 18 18 18 18 18 17 17 17 17 17 17 17 17 17 16 16 16 16 16 16 16 16 16 16 17 17 18 18 17 18 18 18 18 18 18 18 18 18 17 17 16 16
20 20 20 20 20 19 19 19 19 19 19 18 18 17 17 18 18 17 17 17 17 17 18 18 18 18 17 17 17 17 17 16 17 17 17 17 17 17 17 16 16 16 16 17 17 17 18 18 18 18 19 19 18 18 19 19 19 18 18 18 17 16 16
20 20 20 20 20 20 19 19 19 19 19 18 18 17 17 17 17 17 17 17 17 17 17 18 18 18 17 17 17 17 17 17 17 17 17 17 18 18 18 17 17 16 17 18 18 18 18 18 18 19 19 19 19 19 19 19 19 19 18 18 17 16 16
20 20 20 20 20 20 19 19 19 19 19 18 17 17 17 17 17 17 17 17 17 17 17 17 18 18 18 17 17 17 17 17 17 17 17 18 18 18 18 19 18 18 18 18 18 18 19 19 19 20 20 19 19 19 19 19 19 19 18 18 17 16 15
20 20 20 19 19 19 19 19 19 19 18 17 17 17 17 17 17 17 17 17 17 17 17 17 17 17 17 17 17 17 17 17 17 17 17 18 18 18 19 19 19 19 19 19 19 19 19 20 20 21 20 20 19 19 19 19 19 19 18 18 17 16 15
20 20 19 19 19 19 19 19 19 18 18 17 17 17 17 17 17 17 16 16 16 17 17 17 17 17 17 17 17 17 17 17 17 17 17 18 18 18 19 19 19 19 19 19 19 19 20 20 21 20 20 20 20 19 19 18 18 18 18 18 17 16 16
19 19 19 19 19 19 19 18 18 18 17 17 17 17 17 17 17 16 16 16 16 17 17 17 17 17 17 17 17 17 17 17 17 17 17 18 18 18 18 18 18 18 18 19 19 19 20 20 20 20 20 20 20 19 19 18 17 18 18 18 17 17 16
19 19 19 19 18 19 18 18 18 18 17 17 17 17 17 17 17 17 17 17 17 17 17 17 17 17 17 17 17 17 17 17 17 17 17 17 17 18 18 18 18 18 18 18 19 19 19 20 20 19 19 19 19 19 19 17 16 17 17 17 17 17 16
18 18 18 18 18 18 18 18 18 17 17 17 17 17 17 17 17 17 17 17 17 17 17 17 17 17 17 17 17 17 17 17 17 17 17 17 17 18 18 18 18 18 18 18 18 19 19 19 19 19 19 19 19 19 18 17 16 16 17 17 16 16 16
18 18 18 18 18 18 18 18 18 17 18 17 17 17 17 17 17 17 17 17 17 17 17 17 17 17 17 17 17 17 18 18 17 18 18 18 18 18 18 18 18 18 18 18 18 19 19 19 19 19 19 19 19 18 18 17 16 15 16 17 16 16 16
17 18 18 18 18 18 18 18 18 18 18 18 18 18 18 18 18 18 18 17 17 17 17 17 17 17 17 17 18 18 18 18 18 18 18 18 18 18 18 18 18 18 18 18 19 19 19 19 19 19 19 18 18 18 18 17 17 16 16 16 16 16 16
17 18 18 18 18 18 18 18 18 18 18 18 18 18 18 18 18 18 18 18 17 17 17 17 17 17 17 17 18 18 18 18 18 18 18 18 18 18 17 17 17 17 18 18 18 19 19 18 18 18 18 18 18 18 18 18 17 16 16 16 16 16 16
17 18 18 18 18 18 18 18 18 18 18 18 18 18 18 18 18 18 18 18 18 18 17 17 17 17 17 17 17 17 17 17 17 18 18 18 17 17 17 17 17 17 17 17 18 18 18 18 18 18 18 18 17 17 18 17 17 17 17 17 17 17 16
17 17 17 18 18 18 18 18 18 18 18 18 18 18 18 18 18 18 18 18 18 18 18 17 17 17 17 17 17 17 17 17 17 18 18 18 17 17 17 17 17 17 17 17 17 18 18 18 18 18 18 17 17 17 17 17 17 18 17 17 17 17 17
17 17 17 17 17 18 18 18 18 18 18 18 18 18 18 18 18 18 18 18 18 18 18 17 18 17 17 17 17 17 17 17 17 18 18 18 17 17 17 17 17 17 17 17 17 17 17 17 17 18 18 17 17 17 17 17 17 17 17 17 17 17 17
17 17 17 17 17 17 17 18 18 18 18 18 18 18 18 18 18 18 18 18 18 18 18 18 18 18 17 17 17 17 17 17 17 17 17 17 17 17 17 17 17 17 17 17 17 17 17 17 17 17 17 17 17 17 17 17 17 17 17 17 17 17 17
17 17 17 17 17 17 17 17 17 18 18 18 18 18 18 18 18 18 18 19 19 18 18 18 18 18 18 17 17 17 17 17 17 17 17 17 17 17 17 17 17 16 16 16 16 16 16 16 16 16 16 16 16 16 16 17 17 17 17 17 17 17 17
16 16 17 17 16 16 16 16 17 17 18 18 18 18 18 18 18 18 18 18 19 19 18 18 18 18 18 18 17 17 17 17 17 17 17 17 17 17 17 16 16 16 16 16 16 16 15 15 15 16 16 16 16 16 16 16 16 16 16 16 17 17 17
16 16 16 16 16 16 16 16 16 17 17 18 18 17 18 18 18 18 18 18 19 19 18 18 18 18 18 18 17 17 17 17 17 17 17 17 17 17 16 16 16 16 16 16 15 15 15 15 15 15 15 15 16 15 15 15 16 16 16 16 16 16 16
17 16 16 16 16 16 16 16 16 16 17 17 17 17 17 17 18 18 18 18 18 17 17 17 18 18 18 18 17 17 17 17 17 17 17 17 17 16 16 16 16 16 16 15 15 15 15 14 15 15 15 15 15 15 15 15 15 15 15 15 15 15 15
17 17 16 16 16 16 16 16 16 16 16 17 17 17 16 17 17 17 17 17 16 16 16 17 17 17 17 18 17 17 17 16 16 17 17 17 16 15 15 15 15 15 15 15 15 15 14 14 14 14 14 14 14 14 14 14 14 14 14 14 14 15 14
17 17 17 16 16 16 16 16 16 16 16 16 16 16 16 16 16 16 17 16 16 15 15 16 17 17 17 17 17 17 16 16 16 16 16 16 15 14 14 15 14 15 15 15 15 15 14 14 13 13 14 14 14 14 14 14 14 14 14 13 13 13 13
18 17 17 17 16 16 16 16 16 16 15 15 15 16 16 16 16 16 16 16 15 15 15 15 16 16 16 16 16 16 16 16 16 16 16 15 13 13 14 15 14 14 15 15 15 14 14 14 13 13 13 13 13 13 13 13 13 13 13 13 13 13 12
18 18 18 17 17 17 17 16 16 16 15 15 15 15 15 15 15 16 16 15 15 15 15 15 15 15 15 15 15 16 16 15 15 15 14 13 12 12 13 15 15 15 15 15 14 14 14 14 13 13 13 13 12 12 12 12 12 12 12 12 12 12 12
17 17 17 17 17 17 17 17 17 16 16 15 15 15 15 15 15 15 15 15 14 13 14 15 15 15 15 15 15 15 15 15 15 14 13 13 13 12 12 13 14 14 14 14 14 13 13 13 13 13 13 12 11 11 11 12 12 12 12 12 12 12 12
16 16 16 17 17 17 17 17 17 17 16 16 16 15 15 15 15 15 15 15 14 13 13 14 15 15 15 14 14 14 15 15 14 14 13 13 13 12 12 13 13 13 14 14 13 13 13 12 12 12 12 12 11 11 11 11 11 11 11 11 11 11 11
15 15 16 16 16 16 16 16 17 17 17 16 16 16 16 15 15 15 15 15 15 14 13 14 15 14 14 14 13 13 14 14 13 13 13 13 12 12 12 13 13 13 13 13 13 13 12 12 12 12 12 12 11 11 11 11 11 11 11 11 11 11 10
15 15 15 15 15 15 15 16 16 16 16 16 16 16 16 16 16 16 15 15 15 14 13 13 14 14 14 14 13 13 13 13 13 13 13 12 11 11 12 13 13 13 13 13 13 13 12 12 12 12 12 12 12 11 11 11 11 11 11 10 10 10 10
14 14 14 14 14 14 14 15 15 15 15 16 16 16 16 17 16 16 16 15 15 15 14 13 14 14 14 13 13 13 12 12 12 13 12 12 11 11 12 12 12 12 13 13 12 12 12 12 12 12 12 12 12 12 11 11 10 10 10 10 10 10 9
13 13 13 13 13 14 14 14 14 15 15 15 16 16 16 16 16 16 16 16 15 14 14 14 15 14 14 13 13 13 12 12 12 12 12 12 12 11 11 12 12 12 12 12 12 12 12 12 12 12 13 12 12 11 10 10 10 10 10 10 10 10 10
12 12 12 12 13 13 13 14 14 14 15 15 15 15 16 16 16 16 16 16 15 14 13 14 14 14 14 13 13 12 12 12 12 12 12 12 12 11 11 11 12 12 12 12 12 12 11 11 12 12 12 12 11 10 10 10 10 10 10 10 10 10 10
10 11 11 12 12 12 13 13 13 14 14 14 15 15 15 15 16 16 16 16 15 13 12 13 13 14 13 13 13 13 12 11 11 11 11 12 12 12 11 11 11 11 12 12 11 11 11 11 11 11 11 11 10 10 10 10 10 10 10 10 10 10 9
9 9 10 10 11 12 12 13 13 13 14 14 14 15 15 15 15 16 16 15 14 13 13 13 13 13 12 12 12 12 11 11 11 11 11 12 13 12 11 11 11 11 11 11 10 10 11 11 11 11 10 10 10 10 10 9 10 10 9 9 9 9 9

ECMWFFLT1_925_temp_033.txt.gz
Temp
20 20 20 20 19 19 19 19 19 19 19 19 18 18 18 18 18 18 18 18 18 18 17 17 17 17 17 17 16 16 16 16 17 17 16 16 16 16 16 17 17 17 17 17 17 16 15 15 15 16 16 16 16 16 17 16 16 16 15 15 15 15 15
20 20 20 20 19 19 19 19 19 19 19 18 18 18 18 18 18 18 18 18 18 18 17 17 17 17 17 17 17 17 16 16 17 17 17 16 16 16 16 16 16 17 17 17 17 17 16 15 15 15 16 17 17 17 17 17 16 16 16 15 15 15 15
20 20 20 20 19 19 19 19 19 19 18 18 18 18 18 18 18 18 18 18 18 18 17 17 17 17 17 17 17 17 17 17 16 17 17 16 16 16 16 16 16 17 17 17 17 17 16 16 16 16 16 17 17 17 17 17 17 16 16 16 16 16 15
20 20 19 19 19 19 19 19 19 19 18 18 18 18 18 18 18 18 18 18 18 18 17 18 17 17 16 16 16 16 17 17 17 16 16 16 16 16 16 16 17 17 17 17 17 17 16 15 16 16 16 17 17 17 17 17 17 17 16 16 16 16 15
20 20 19 19 19 19 19 19 19 18 18 18 18 18 18 18 17 17 17 18 18 18 18 18 17 17 17 16 16 16 16 17 17 16 16 16 16 16 16 16 17 17 17 17 17 17 17 16 16 16 16 17 17 17 17 17 17 17 16 16 16 16 15
20 20 19 19 19 19 19 19 18 18 18 18 17 17 17 17 17 17 17 17 18 18 18 18 17 17 17 17 17 16 16 17 17 17 17 17 17 17 17 16 17 17 17 18 17 17 17 17 16 16 16 17 16 17 17 17 17 16 16 16 16 15 15
20 20 19 19 19 19 19 19 19 18 18 17 17 17 17 17 17 17 17 17 17 17 17 17 17 17 17 17 17 17 17 17 17 17 17 17 17 17 17 17 17 17 17 17 18 18 17 17 17 16 16 17 17 17 17 17 17 16 15 15 15 15 15
20 20 19 19 19 19 19 19 19 19 18 17 17 17 17 17 17 17 17 17 17 17 17 17 17 17 17 17 17 17 17 17 17 17 17 17 17 17 17 17 17 17 17 18 18 18 18 18 18 17 17 17 17 17 17 17 17 16 15 15 15 16 15
20 19 19 19 19 19 19 19 19 18 18 17 17 17 17 17 17 17 17 17 17 17 17 17 17 17 17 17 17 17 17 17 17 17 17 17 17 17 17 17 17 17 18 18 18 18 18 18 18 18 18 18 17 16 17 17 16 16 16 16 15 15 15
19 19 19 19 19 19 19 19 18 18 18 17 17 17 17 17 17 17 17 17 17 17 17 17 17 17 17 17 17 17 17 17 18 18 18 18 18 18 18 18 18 18 18 18 18 18 18 18 18 18 19 19 18 17 16 16 16 16 16 16 15 15 15
19 19 19 19 19 19 19 19 18 18 17 17 17 16 16 16 16 16 16 16 16 17 17 17 17 17 17 17 17 17 17 17 18 18 18 18 18 18 18 18 18 18 18 18 19 19 19 19 19 18 19 19 19 18 17 16 16 16 16 16 16 15 15
19 19 19 19 19 19 19 18 18 17 17 17 16 16 16 16 16 16 16 16 16 17 17 17 17 17 17 17 17 17 17 17 18 18 18 18 18 18 18 18 18 18 19 19 19 19 19 19 19 19 19 19 19 19 18 16 16 16 16 16 16 16 15
19 19 19 19 19 19 18 18 17 17 17 17 16 16 16 16 16 16 16 16 16 17 17 17 17 17 17 17 17 17 17 17 17 17 17 18 18 18 18 18 18 18 19 19 19 19 19 19 19 19 19 19 19 19 18 17 15 15 16 16 16 16 16
19 19 19 19 18 18 18 18 17 17 17 17 16 16 16 16 16 16 16 16 16 17 17 17 17 17 17 17 17 17 17 17 17 17 17 18 18 18 18 18 18 18 19 19 19 19 19 19 18 18 18 19 18 18 19 18 16 15 16 16 16 16 16
18 19 19 18 18 18 18 18 17 17 17 17 17 17 17 17 17 17 17 16 16 17 17 17 17 17 17 17 17 17 17 17 17 17 17 17 17 18 18 18 18 18 18 19 19 19 19 18 18 18 18 18 18 18 18 18 16 16 16 16 16 16 16
18 18 18 18 18 18 18 18 17 17 17 17 17 17 17 17 17 17 17 17 17 17 17 17 17 17 17 17 17 17 17 17 17 17 17 17 17 18 18 18 18 18 18 18 18 18 18 18 18 18 18 18 17 17 18 17 17 16 16 16 16 16 16
18 18 18 18 18 18 18 17 17 17 17 17 17 17 17 17 17 17 17 17 17 17 17 17 17 17 17 17 17 17 17 17 17 17 17 17 17 18 18 17 18 18 18 18 18 18 18 18 18 18 18 18 17 17 17 17 17 17 16 16 16 16 16
17 18 18 18 18 18 18 17 17 17 17 18 18 18 18 18 18 17 17 17 17 17 17 17 17 17 17 17 17 17 17 17 17 17 17 17 17 17 17 17 17 18 18 18 18 18 18 18 18 18 18 18 17 17 17 17 17 17 16 16 16 16 16
16 17 17 18 18 18 18 17 17 17 17 18 18 18 18 18 18 18 18 17 17 17 17 17 17 17 17 17 17 17 17 17 17 17 17 17 17 17 17 17 18 18 18 18 17 17 17 17 17 17 17 17 17 17 17 17 17 17 17 16 16 16 16
15 16 17 17 18 18 18 17 17 17 17 18 18 18 18 18 18 18 18 18 18 17 17 17 17 17 17 17 17 17 17 17 17 17 17 17 17 17 17 17 18 17 17 17 17 17 17 17 17 17 17 17 17 17 17 17 17 17 17 16 16 16 16
16 15 16 17 17 17 17 17 17 17 17 18 18 18 18 18 18 18 18 18 18 18 17 17 17 17 17 17 17 17 17 17 17 17 17 17 17 17 17 17 17 17 17 17 17 17 17 17 17 16 16 16 17 17 16 16 16 16 16 16 16 16 16
15 15 14 16 17 17 17 17 17 17 17 17 18 17 17 18 18 18 18 18 18 18 18 18 17 17 17 17 17 17 17 17 17 17 17 17 17 17 17 17 17 16 16 16 17 17 17 17 17 17 16 16 16 16 16 16 16 16 16 16 15 15 15
15 15 15 16 16 16 16 17 17 17 17 17 17 18 17 18 18 18 18 18 18 18 18 18 18 17 17 17 17 17 17 17 17 17 17 17 17 17 17 16 16 16 16 16 16 16 16 17 17 17 16 16 16 16 16 16 16 16 15 15 15 15 15
15 15 15 16 16 16 15 16 16 17 17 17 17 17 17 17 17 18 18 18 18 18 18 18 18 18 17 17 17 17 17 17 17 17 17 17 17 17 17 16 16 16 16 16 16 16 16 16 16 16 16 16 16 16 16 16 15 15 15 15 15 14 14
16 16 16 16 16 15 15 15 16 16 16 16 16 17 17 17 17 17 17 18 17 17 17 18 18 18 18 17 17 17 17 17 17 17 17 16 16 16 16 16 16 16 16 16 16 16 15 15 15 15 15 15 15 15 15 15 15 15 15 15 14 14 13
15 15 15 15 16 15 14 15 16 16 16 16 16 16 16 17 17 17 17 17 17 17 17 17 17 17 17 17 17 17 17 17 17 16 16 16 16 16 16 16 15 15 15 15 15 15 15 15 15 15 15 15 14 14 14 15 15 15 15 14 14 13 13
14 15 15 15 15 15 14 15 16 16 16 16 16 16 16 16 16 16 16 16 17 17 17 17 17 17 17 17 17 17 17 16 16 16 16 16 15 15 16 16 15 15 15 15 15 15 15 15 15 14 14 14 14 14 14 14 14 14 14 14 13 13 12
15 15 15 15 15 15 15 15 16 16 16 16 16 16 15 15 15 16 16 16 16 16 17 17 17 17 17 17 17 17 16 16 15 15 15 15 15 15 15 15 15 15 15 15 15 15 15 15 14 14 14 14 13 13 13 13 13 13 13 13 13 13 12
14 15 15 15 15 15 15 15 15 15 16 16 16 16 15 15 15 15 15 15 15 16 16 16 17 17 17 17 17 16 16 16 15 14 14 14 15 15 15 15 15 15 15 15 15 15 15 14 14 13 13 13 12 12 12 12 12 12 12 12 12 12 12
14 14 14 14 14 15 15 15 15 15 15 15 15 16 15 15 15 15 15 15 15 15 16 16 16 16 16 16 16 16 16 16 15 13 13 14 14 14 14 15 15 14 15 15 15 14 14 14 13 13 12 12 11 11 11 11 11 11 11 12 12 11 11
12 12 13 13 13 14 14 14 14 15 15 15 15 15 15 15 16 15 15 15 15 15 16 16 16 16 16 16 15 15 15 15 14 13 13 13 13 14 14 14 14 14 14 15 15 14 13 13 13 12 12 11 11 11 11 11 11 11 11 11 11 11 11
11 11 11 12 12 13 13 13 14 14 14 14 15 15 15 15 15 15 16 16 16 15 15 16 16 16 15 15 15 15 14 14 14 13 12 13 13 13 13 13 14 14 14 14 14 13 13 12 12 12 12 11 11 10 11 11 11 11 11 11 11 10 10
10 10 10 11 11 11 12 12 13 13 13 14 14 14 14 15 15 15 15 15 16 15 15 16 16 16 16 15 15 14 14 13 13 13 12 12 12 12 13 13 13 13 13 13 13 13 12 12 12 12 12 11 11 11 11 11 11 11 10 10 10 10 10
9 9 10 10 10 10 11 11 11 12 12 12 13 13 14 14 14 14 15 15 15 15 15 15 15 16 16 15 15 15 14 13 13 13 12 12 12 12 12 12 12 13 13 13 13 12 12 12 12 12 12 12 12 12 11 11 11 10 10 10 10 10 10
9 9 9 9 9 9 10 10 10 10 11 11 12 12 13 13 14 14 14 15 15 15 15 15 15 15 15 15 15 14 14 14 13 12 12 12 12 12 12 12 12 12 12 12 12 12 12 12 12 12 12 12 12 12 11 11 10 10 10 10 10 10 9
8 8 8 9 8 8 9 9 9 9 10 10 11 11 12 13 13 13 14 14 15 15 15 15 15 15 15 15 15 14 14 13 12 11 11 11 11 11 11 11 11 11 11 11 12 11 11 11 11 12 12 11 11 11 10 10 10 10 10 10 9 9 9
8 8 8 8 8 8 8 8 8 9 9 10 10 10 11 12 12 13 13 14 14 14 14 14 14 14 15 15 15 14 13 12 12 11 11 11 11 11 11 10 11 11 11 11 11 11 11 11 11 11 11 11 10 10 10 10 10 10 9 9 9 9 9